Showing default

KAZSCISAT-1, 43787

Orbit data source: Space-Track

KAZSCISAT-1, 43787 is a payload satellite owned by Ghalam LLP (KZ) in SSO that was launched on Mon, 03 Dec 2018 UTC via an FALCON 9 launch vehicle from the Air Force Western Test Range (AFWTR). Payloads include a variety of satellites, spacecraft, and rockets equipped with specific instruments for various scientific and technological missions. These include communications satellites like Starlink; space stations such as the ISS; scientific satellites like the Hubble; Earth observation satellites from companies like Planet Labs, Umbra, and HawkEye 360; GPS; miniature CubeSats for education and research; and military/defense satellites.

Loading next visibility...
KAZSCISAT-1 details
Identifier
43787, 2018-099AF
Orbit
SSO
Last TLE update1 day ago
Origin
Flag of KZGhalam LLP (KZ / KAZ)
ManufacturerGhalam LLP
MissionOperational Commercial Science
Bus & MotorCUBESAT 3U, Unknown motor
Mass4 kg wet, 4 kg dry
Launch date (UTC)
2018-12-03 (6 years ago)
Launch vehicle
FALCON 9
Launch site
Air Force Western Test Range (AFWTR)
Object type
Payload
Rocket body
Debris
Shape & HBRBox, 0.3 m
Radar Cross Section0.035 m², Small (<0.1 m²)

Expand to show TLE details & history

TLE from 1 day ago
0 KAZSCISAT-1
1 43787U 18099AF  24360.14252141  .00070541  00000-0  22533-2 0  9995
2 43787  97.4810  59.6091 0004344   7.3524 352.7781 15.32189474331976
Epoch: 2024-12-25T03:25Z
Definitive object data (Epoch: 2024-12-25T03:25:13.849Z)
Latitude0.00001°
Longitude-85.83912°
Altitude469.434 km
Speed7.633 km/s
True Right ascension03h 58m 26s
True Declination0° 00' 00"
Sunlit
Object was in full shadow at TLE epoch
Visualization TLE readout
Latitude-71.63511°
Longitude-61.30229°
Altitude494.504 km
Speed7.617 km/s
Apparent Right ascension01h 00m 13s
Apparent Declination-63° 39' 33"
Sunlit
Object is in daylight
Visualization observer readout
Local Sidereal Time11:22:22
Azimuth203.223° SW
Elevation-62.229°
Doppler factor1
Orbital elements
Apogee altitude469.207 km
Perigee altitude463.261 km
Semi-major axis6,844.371 km
Eccentricity0.0004344
Inclination97.481°
RAAN59.6091°
Arg. of periapsis7.3524°
True anomaly352.77184°
Mean anomaly352.7781°
Eccentric anomaly352.77497°
Mean motion3.83304 °/min
BSTAR0.0022533
Orbital period93.92 mins
Loading maneuver chart data...
Loading historical data...
Loading historical data...
Loading historical data...
Loading historical data...
Loading historical data...
Loading historical data...
Loading historical data...

KAZSCISAT-1 Visibility forecast

Observer location: undefined°, undefined

Span
Click to sort rows by Start time (UTC) header in descending order
Start Az.
Max El. time (UTC)
Max El. Az.
Max El.
End time (UTC)
End Az.
4 mins2024-12-26 17:36:55.839Z327.268° NNW2024-12-26 17:37:55.839Z296.389° NW28.127°2024-12-26 17:40:55.839Z225.619° WSW
5 mins2024-12-27 04:08:55.839Z156.927° SSE2024-12-27 04:10:55.839Z67.596° E43.615°2024-12-27 04:13:55.839Z352.781° N
|